Weather History for Anchorage Merrill, AK

Change the Weather History Date:

Friday, June 8, 2012

  Actual Average Record
Temperature  
Mean Temperature 56 °F -  
Max Temperature 62 °F 61 °F 73 °F (2013)
Min Temperature 52 °F 46 °F 42 °F (2001)
Degree Days  
Heating Degree Days 8    
Growing Degree Days 6 (Base 50)    
Moisture  
Dew Point 40 °F    
Average Humidity 56    
Maximum Humidity 71    
Minimum Humidity 42    
Precipitation  
Precipitation 0.00 in - - ()
Sea Level Pressure  
Sea Level Pressure 29.76 in    
Wind  
Wind Speed 3 mph (South)    
Max Wind Speed 14 mph    
Max Gust Speed 24 mph    
Visibility 10 miles    
Events      
Averages and records for this station are not official NWS values.
T = Trace of Precipitation, MM = Missing Value Source: NWS Daily Summary

Daily Weather History Graph

Daily Weather History Graph

Search for Another Location

Airport:

Trip Planner

Search our weather history database for the weather conditions in past years. The results will help you decide how hot, cold, wet, or windy it might be!

Date:

Astronomy

Jun. 08, 2012 Rise Set
Actual Time 4:25 AM AKDT 11:32 PM AKDT
Civil Twilight 2:30 AM AKDT 1:26 AM AKDT
Nautical Twilight Sun does not rise Sun does not rise
Astronomical Twilight Sun does not rise Sun does not rise
Moon 1:18 AM AKDT (6/8) 10:32 AM AKDT (6/8)
Length of Visible Light 22h 55m
Length of Day
19h 07m
Waning Gibbous, 76% of the Moon is Illuminated
Jun 8
Waning Gibbous
Jun 11
Last Quarter
Jun 19
New
Jun 26
First Quarter
Jul 3
Full

Hourly Weather History & Observations

Time (AKDT) Temp. Dew Point Humidity Pressure Visibility Wind Dir Wind Speed Gust Speed Precip Events Conditions
12:53 AM 53.1 °F 41.0 °F 64% 29.75 in 10.0 mi Calm Calm - N/A   Mostly Cloudy
1:53 AM 53.1 °F 44.1 °F 71% 29.74 in 10.0 mi Calm Calm - N/A   Overcast
2:53 AM 53.1 °F 42.1 °F 66% 29.73 in 10.0 mi SSW 4.6 mph - N/A   Overcast
3:53 AM 53.1 °F 43.0 °F 69% 29.72 in 10.0 mi South 5.8 mph - N/A   Overcast
4:00 AM 53.6 °F 42.8 °F 67% 29.72 in 10.0 mi South 5.8 mph - N/A   Overcast
4:53 AM 52.0 °F 41.0 °F 66% 29.72 in 10.0 mi Calm Calm - N/A   Overcast
5:53 AM 52.0 °F 39.9 °F 63% 29.71 in 10.0 mi SSE 3.5 mph - N/A   Overcast
6:53 AM 53.1 °F 39.0 °F 59% 29.70 in 10.0 mi Calm Calm - N/A   Overcast
7:53 AM 54.0 °F 39.9 °F 59% 29.70 in 10.0 mi SSW 4.6 mph - N/A   Overcast
8:53 AM 54.0 °F 41.0 °F 62% 29.70 in 10.0 mi WNW 3.5 mph - N/A   Overcast
9:53 AM 55.9 °F 41.0 °F 57% 29.70 in 10.0 mi Calm Calm - N/A   Overcast
10:53 AM 55.9 °F 41.0 °F 57% 29.70 in 10.0 mi Calm Calm - N/A   Overcast
11:53 AM 57.0 °F 41.0 °F 55% 29.70 in 10.0 mi NW 4.6 mph - N/A   Overcast
12:53 PM 57.0 °F 41.0 °F 55% 29.71 in 10.0 mi Calm Calm - N/A   Overcast
1:53 PM 57.0 °F 42.1 °F 57% 29.72 in 10.0 mi Calm Calm - N/A   Overcast
2:53 PM 57.9 °F 43.0 °F 58% 29.73 in 10.0 mi WNW 3.5 mph - N/A   Overcast
3:53 PM 57.9 °F 43.0 °F 58% 29.74 in 10.0 mi NNW 4.6 mph - N/A   Overcast
4:53 PM 60.1 °F 43.0 °F 53% 29.77 in 10.0 mi North 5.8 mph - N/A   Overcast
5:53 PM 61.0 °F 44.1 °F 54% 29.79 in 10.0 mi North 4.6 mph - N/A   Overcast
6:53 PM 61.0 °F 37.9 °F 42% 29.82 in 10.0 mi SE 9.2 mph - N/A   Overcast
7:53 PM 59.0 °F 36.0 °F 42% 29.85 in 10.0 mi SE 13.8 mph 21.9 mph N/A   Partly Cloudy
8:53 PM 57.9 °F 35.1 °F 42% 29.88 in 10.0 mi SSE 10.4 mph 24.2 mph N/A   Partly Cloudy
9:53 PM 57.0 °F 35.1 °F 44% 29.91 in 10.0 mi South 8.1 mph - N/A   Clear
10:53 PM 57.0 °F 35.1 °F 44% 29.93 in 10.0 mi South 8.1 mph - N/A   Clear
11:53 PM 55.9 °F 35.1 °F 45% 29.95 in 10.0 mi South 10.4 mph - N/A   Mostly Cloudy